Air Resources Laboratory banner image
Air Resources Laboratory web site National Oceanic and Atmospheric Administration (NOAA)

wi roundup


Office: GRB

ASUS43 KGRB 181300
RWRGRB

NORTH-CENTRAL AND NORTHEAST WISCONSIN REGIONAL WEATHER ROUNDUP
NATIONAL WEATHER SERVICE GREEN BAY WI
800 AM CDT THU OCT 18 2018

WIZ005-009-010>012-018-019-181400-
NORTH CENTRAL WISCONSIN

CITY           SKY/WX    TMP DP  RH WIND       PRES   REMARKS
IRONWOOD       FAIR      33  17  51 SW10      30.29F
MANITOWISH WTR FAIR      29  18  63 SW7       30.32S
ARBOR VITAE    FAIR      29  21  71 SW6       30.33F
EAGLE RIVER    FAIR      28  17  63 SW6       30.33F
LAND O LAKES   FAIR      27  21  79 SW6       30.33F
RHINELANDER    FAIR      32  17  54 SW7       30.36F
PHILLIPS       FAIR      28  17  65 S6        30.35F
ANTIGO         FAIR      26  20  78 SW6       30.39F
TOMAHAWK       FAIR      24  19  78 CALM      30.37F
MERRILL        FAIR      21  19  94 CALM      30.40F
$$

WIZ013-073-181400-
NORTHEAST WISCONSIN

CITY           SKY/WX    TMP DP  RH WIND       PRES   REMARKS
IRON MOUNTAIN  FAIR      26  20  77 S3        30.35F
MARINETTE      FAIR      29  24  82 SW6       30.44F
$$

WIZ017-030-035>037-045-181400-
CENTRAL WISCONSIN

CITY           SKY/WX    TMP DP  RH WIND       PRES   REMARKS
MEDFORD        FAIR      26  18  71 S7        30.38F
WAUSAU         FAIR      26  23  88 SE3       30.40F
MOSINEE        CLEAR     23  21  93 S3        30.43F
MARSHFIELD     FAIR      25  22  88 S5        30.41F
WISC RAPIDS    FAIR      26  21  81 S3        30.46S
STEVENS POINT  FAIR      23  22  96 CALM      30.45S
WAUPACA        FAIR      27  24  87 CALM      30.46S
SHAWANO        FAIR      29  24  83 CALM      30.44F
CLINTONVILLE   FAIR      25  22  87 CALM      30.45F
WAUTOMA        FAIR      25  24  96 CALM      30.48S
$$

WIZ038-039-048-051-181400-
FOX VALLEY

CITY           SKY/WX    TMP DP  RH WIND       PRES   REMARKS
NWS GREEN BAY  FAIR      30  25  81 S5        30.46F
APPLETON       CLEAR     30  21  69 SW6       30.44F
OSHKOSH        FAIR      32  24  72 S8        30.47R
FOND DU LAC    FAIR      29  24  82 S5        30.48S
$$

WIZ022-050-052-181400-
EAST CENTRAL WISCONSIN

CITY           SKY/WX    TMP DP  RH WIND       PRES   REMARKS
EPHRAIM        FAIR      31  25  78 SW3       30.42S
WASHINGTON ISL FAIR      38  24  55 W8        30.41F
STURGEON BAY   FAIR      31  24  75 S8        30.45S
MANITOWOC      FAIR      29  27  92 SW5       30.48S
SHEBOYGAN      FAIR      27  25  92 W3        30.48S
$$

LMZ563-521-522-541>543-181400-
LAKESHORE

STATION/POSITION TIME  TEMP    WIND        PRES    VSBY  WAVE
                       AIR SEA DIR/SP/G                  HT/PER
                 (UTC) (F)     (DEG/KT/KT) (MB)    (MI)  (FT/S)
SHEBOYGAN LKSHOR 1200   36     250/  9/  9 1032.6F
KEWAUNEE LKSHORE 1230   33     230/  4/  8 1030.5F
NORTHPORT PIER   1240   35     160/  1/  2 1030.1S
N MID LAKE BUOY  1240   41 53  240/ 14/ 17 1030.1R
S GREEN BAY BUOY 1230   48 53  220/ 16/ 19 1030.4F
SISTER BAY LKSHO 1223   39     200/  7/ 10   N/A
CHAMBERS ISLAND  1240   39     210/  8/ 15 1029.1F
MENOMINEE LKSHOR 1230   32 48  230/  8/ 12 1030.1F
$$


ASUS43 KGRB 181311
RWRGRB

NORTH-CENTRAL AND NORTHEAST WISCONSIN REGIONAL WEATHER ROUNDUP
NATIONAL WEATHER SERVICE GREEN BAY WI
800 AM CDT THU OCT 18 2018

WIZ005-009-010>012-018-019-181400-
NORTH CENTRAL WISCONSIN

CITY           SKY/WX    TMP DP  RH WIND       PRES   REMARKS
IRONWOOD       FAIR      33  17  51 SW10      30.29F
MANITOWISH WTR FAIR      29  18  63 SW7       30.32S
ARBOR VITAE    FAIR      29  21  71 SW6       30.33F
EAGLE RIVER    FAIR      28  17  63 SW6       30.33F
LAND O LAKES   FAIR      27  21  79 SW6       30.33F
RHINELANDER    FAIR      32  17  54 SW7       30.36F
PHILLIPS       FAIR      28  17  65 S6        30.35F
ANTIGO         FAIR      26  20  78 SW6       30.39F
TOMAHAWK       FAIR      24  19  78 CALM      30.37F
MERRILL        FAIR      21  19  94 CALM      30.40F
$$

WIZ013-073-181400-
NORTHEAST WISCONSIN

CITY           SKY/WX    TMP DP  RH WIND       PRES   REMARKS
IRON MOUNTAIN  FAIR      26  20  77 S3        30.35F
MARINETTE      FAIR      29  24  82 SW6       30.44F
OCONTO         FAIR      23  21  90 CALM      30.44F
$$

WIZ017-030-035>037-045-181400-
CENTRAL WISCONSIN

CITY           SKY/WX    TMP DP  RH WIND       PRES   REMARKS
MEDFORD        FAIR      26  18  71 S7        30.38F
WAUSAU         FAIR      26  23  88 SE3       30.40F
MOSINEE        CLEAR     23  21  93 S3        30.43F
MARSHFIELD     FAIR      25  22  88 S5        30.41F
WISC RAPIDS    FAIR      26  21  81 S3        30.46S
STEVENS POINT  FAIR      23  22  96 CALM      30.45S
WAUPACA        FAIR      27  24  87 CALM      30.46S
SHAWANO        FAIR      29  24  83 CALM      30.44F
CLINTONVILLE   FAIR      25  22  87 CALM      30.45F
WAUTOMA        FAIR      25  24  96 CALM      30.48S
$$

WIZ038-039-048-051-181400-
FOX VALLEY

CITY           SKY/WX    TMP DP  RH WIND       PRES   REMARKS
NWS GREEN BAY  FAIR      30  25  81 S5        30.46F
APPLETON       CLEAR     30  21  69 SW6       30.44F
OSHKOSH        FAIR      32  24  72 S8        30.47R
FOND DU LAC    FAIR      29  24  82 S5        30.48S
$$

WIZ022-050-052-181400-
EAST CENTRAL WISCONSIN

CITY           SKY/WX    TMP DP  RH WIND       PRES   REMARKS
EPHRAIM        FAIR      31  25  78 SW3       30.42S
WASHINGTON ISL FAIR      38  24  55 W8        30.41F
STURGEON BAY   FAIR      31  24  75 S8        30.45S
MANITOWOC      FAIR      29  27  92 SW5       30.48S
SHEBOYGAN      FAIR      27  25  92 W3        30.48S
$$

LMZ563-521-522-541>543-181400-
LAKESHORE

STATION/POSITION TIME  TEMP    WIND        PRES    VSBY  WAVE
                       AIR SEA DIR/SP/G                  HT/PER
                 (UTC) (F)     (DEG/KT/KT) (MB)    (MI)  (FT/S)
SHEBOYGAN LKSHOR 1300   36     250/  7/  8 1032.7R
KEWAUNEE LKSHORE 1248   35     220/  5/  7 1030.5F
NORTHPORT PIER   1301   38     190/  2/  3 1030.1
N MID LAKE BUOY  1250   41 53  250/ 16/ 17 1029.9F         1/ 3
S GREEN BAY BUOY 1300   49 52  210/ 17/ 21 1030.4
SISTER BAY LKSHO 1223   39     200/  7/ 10   N/A
CHAMBERS ISLAND  1240   39     210/  8/ 15 1029.1F
MENOMINEE LKSHOR 1248   32 48  230/  9/ 12 1030.2F
$$




Office: MKX ASUS43 KMKX 181300 RWRWI WISCONSIN REGIONAL WEATHER ROUNDUP NATIONAL WEATHER SERVICE MILWAUKEE/SULLIVAN WI 800 AM CDT THU OCT 18 2018 NOTE: "FAIR" INDICATES FEW OR NO CLOUDS BELOW 12,000 FEET WITH NO SIGNIFICANT WEATHER AND/OR OBSTRUCTIONS TO VISIBILITY. WIZ001-002-006>008-014>016-023>028-181400- NORTHWEST WISCONSIN CITY SKY/WX TMP DP RH WIND PRES REMARKS SUPERIOR ARPT FAIR 29 22 75 SW5 30.26F WCI 24 ASHLAND FAIR 31 23 72 SW9 30.29F WCI 23 HAYWARD FAIR 31 24 75 S9 30.32F WCI 23 SIREN FAIR 33 25 72 S6 30.32F WCI 27 CUMBERLAND FAIR 28 23 80 CALM 30.35F RICE LAKE FAIR 28 23 81 CALM 30.38F CHETEK FAIR 26 23 89 CALM 30.38F LADYSMITH FAIR 28 20 71 MISG 30.39F EAU CLAIRE NOT AVBL MENOMONIE FAIR N/A N/A N/A E3 30.40F NEW RICHMOND FAIR 33 26 75 S9 30.36F WCI 25 OSCEOLA FAIR 32 28 82 S5 30.38F WCI 28 $$ WIZ003>005-009-010-017-018-181400- NORTH CENTRAL WISCONSIN CITY SKY/WX TMP DP RH WIND PRES REMARKS MANITOWISH WTR FAIR 29 18 63 SW7 30.32S WCI 22 ARBOR VITAE FAIR 29 21 71 SW6 30.33F WCI 23 WOODRUFF FAIR 29 21 71 SW6 30.33F WCI 23 RHINELANDER FAIR 32 17 54 SW7 30.36F WCI 26 EAGLE RIVER FAIR 28 17 63 SW6 30.33F WCI 22 LAND O LAKES FAIR 27 21 79 SW6 30.33F WCI 20 PHILLIPS FAIR 28 17 65 S6 30.35F WCI 21 TOMAHAWK FAIR 24 19 78 CALM 30.37F MEDFORD FAIR 26 18 71 S7 30.38F WCI 19 MERRILL FAIR 21 19 94 CALM 30.40F $$ WIZ029-030-035-036-043>047-181400- CENTRAL WISCONSIN CITY SKY/WX TMP DP RH WIND PRES REMARKS WAUSAU FAIR 26 23 88 SE3 30.40F MOSINEE CLEAR 23 21 93 S3 30.43F MARSHFIELD FAIR 25 22 88 S5 30.41F WCI 19 STEVENS POINT FAIR 23 22 96 CALM 30.45S WAUPACA FAIR 27 24 87 CALM 30.46S WAUTOMA FAIR 25 24 96 CALM 30.48S WISC RAPIDS FAIR 26 21 81 S3 30.46S CAMP DOUGLAS NOT AVBL $$ WIZ011>013-019>022-031-037>040-048>050-181400- NORTHEAST WISCONSIN CITY SKY/WX TMP DP RH WIND PRES REMARKS ANTIGO FAIR 26 20 78 SW6 30.39F WCI 19 SHAWANO FAIR 29 24 83 CALM 30.44F OCONTO NOT AVBL STURGEON BAY FAIR 31 24 75 S8 30.45S WCI 23 GREEN BAY FAIR 30 25 81 S5 30.46F WCI 25 MANITOWOC FAIR 29 27 92 SW5 30.48S WCI 24 APPLETON CLEAR 30 21 69 SW6 30.44F WCI 24 CLINTONVILLE FAIR 25 22 87 CALM 30.45F OSHKOSH FAIR 32 24 72 S8 30.47R WCI 25 $$ WIZ032>034-041-042-053>061-181400- SOUTHWEST WISCONSIN CITY SKY/WX TMP DP RH WIND PRES REMARKS LA CROSSE FAIR 33 28 81 SE7 30.47S WCI 27 SPARTA FAIR 21 20 96 CALM 30.47S VIROQUA FAIR 34 28 81 S6 30.46R WCI 28 BOSCOBEL FOG 31 30 96 CALM 30.51R VSB<1/4 PRAIRIE DU CHI FAIR 30 28 93 E3 30.50S PLATTEVILLE FAIR 32 30 92 SE6 30.49S WCI 26 $$ WIZ056-057-062-063-064-067-068-181400- SOUTH CENTRAL WISCONSIN CITY SKY/WX TMP DP RH WIND PRES REMARKS REEDSBURG FAIR 28 28 100 CALM 30.48S BARABOO/DELLS FAIR 28 26 94 CALM 30.47S LONE ROCK FAIR 28 27 96 CALM 30.50S MINERAL POINT NOT AVBL MADISON FAIR 29 28 96 CALM 30.49S MIDDLETON FAIR 30 29 96 CALM 30.50S WATERTOWN FAIR 28 28 100 CALM 30.49S MONROE FAIR 32 26 76 S7 30.49S WCI 26 JANESVILLE CLEAR 28 28 100 CALM 30.51S $$ WIZ051-052-058>065-066-070>072-181400- SOUTHEAST WISCONSIN CITY SKY/WX TMP DP RH WIND PRES REMARKS MILWAUKEE FAIR 35 27 72 CALM 30.50R WAUKESHA CLEAR 28 27 93 CALM 30.50S MILWAUKEE/TIMM CLEAR 28 25 86 CALM 30.51R RACINE FAIR 34 26 72 W6 30.52R WCI 29 BURLINGTON FAIR 27 25 94 SW3 30.50S KENOSHA FAIR 31 28 89 W5 30.51R WCI 26 FOND DU LAC FAIR 29 24 82 S5 30.48S WCI 24 SHEBOYGAN FAIR 27 25 92 W3 30.48S WEST BEND NOT AVBL JUNEAU FAIR 27 24 89 CALM 30.50R $$ LSZ147-162-181400- LAKE SUPERIOR STATION/POSITION TIME TEMP WIND PRES WAVE AIR SEA DIR/SP/G HT/PER (UTC) (F) (DEG/KT/KT) (MB) (FT/S) W MID LAKE BUOY 1150 42 43 220/ 21/ 25 1024.3F 3/ 4 DEVILS ISLAND 1200 42 220/ 19/ 25 1025.2F SAXON HARBOR 1230 36 200/ 11/ 16 1025.4F $$ LMZ867-665-643>646-181400- LAKE MICHIGAN STATION/POSITION TIME TEMP WIND PRES WAVE AIR SEA DIR/SP/G HT/PER (UTC) (F) (DEG/KT/KT) (MB) (FT/S) CHAMBERS ISLAND 1240 39 210/ 8/ 15 1029.1F S GREEN BAY BUOY 1200 48 53 230/ 14/ 17 1030.8 N MID LAKE BUOY 1240 41 53 240/ 14/ 17 1030.1R NORTHPORT PIER 1240 35 160/ 1/ 2 1030.1S KEWAUNEE LAKESHO 1230 33 230/ 4/ 8 1030.5F SHEBOYGAN LAKESH 1200 36 250/ 9/ 9 1032.6F PORT WASHINGTON 1240 34 260/ 4/ 5 1033.5S ATWATER BUOY 1207 41 54 250/ 8/ 10 1032.3R 2/20 MILWAUKEE LAKESH 1200 37 300/ 4/ 5 N/A S MID LAKE BUOY 1150 46 57 130/ 8/ 10 1032.9R 2/ 6 KENOSHA LAKESH 1200 36 270/ 7/ 8 1032.5 $$ TC - TEMPERATURE IN CELSIUS VSB - VISIBILITY IN STATUTE MILES WCI - WIND CHILL INDEX HX - HEAT INDEX ASUS43 KMKX 181311 RWRWI WISCONSIN REGIONAL WEATHER ROUNDUP NATIONAL WEATHER SERVICE MILWAUKEE/SULLIVAN WI 800 AM CDT THU OCT 18 2018 NOTE: "FAIR" INDICATES FEW OR NO CLOUDS BELOW 12,000 FEET WITH NO SIGNIFICANT WEATHER AND/OR OBSTRUCTIONS TO VISIBILITY. WIZ001-002-006>008-014>016-023>028-181400- NORTHWEST WISCONSIN CITY SKY/WX TMP DP RH WIND PRES REMARKS SUPERIOR ARPT FAIR 29 22 75 SW5 30.26F WCI 24 ASHLAND FAIR 31 23 72 SW9 30.29F WCI 23 HAYWARD FAIR 31 24 75 S9 30.32F WCI 23 SIREN FAIR 33 25 72 S6 30.32F WCI 27 CUMBERLAND FAIR 28 23 80 CALM 30.35F RICE LAKE FAIR 28 23 81 CALM 30.38F CHETEK FAIR 26 23 89 CALM 30.38F LADYSMITH FAIR 29 20 67 MISG 30.39F EAU CLAIRE FAIR 26 24 92 CALM 30.40F MENOMONIE FAIR N/A N/A N/A E3 30.40F NEW RICHMOND FAIR 33 26 75 S9 30.36F WCI 25 OSCEOLA FAIR 32 28 82 S5 30.38F WCI 28 $$ WIZ003>005-009-010-017-018-181400- NORTH CENTRAL WISCONSIN CITY SKY/WX TMP DP RH WIND PRES REMARKS MANITOWISH WTR FAIR 29 18 63 SW7 30.32S WCI 22 ARBOR VITAE FAIR 29 21 71 SW6 30.33F WCI 23 WOODRUFF FAIR 29 21 71 SW6 30.33F WCI 23 RHINELANDER FAIR 32 17 54 SW7 30.36F WCI 26 EAGLE RIVER FAIR 28 17 63 SW6 30.33F WCI 22 LAND O LAKES FAIR 27 21 79 SW6 30.33F WCI 20 PHILLIPS FAIR 28 17 65 S6 30.35F WCI 21 TOMAHAWK FAIR 24 19 78 CALM 30.37F MEDFORD FAIR 26 18 71 S7 30.38F WCI 19 MERRILL FAIR 21 19 94 CALM 30.40F $$ WIZ029-030-035-036-043>047-181400- CENTRAL WISCONSIN CITY SKY/WX TMP DP RH WIND PRES REMARKS WAUSAU FAIR 26 23 88 SE3 30.40F MOSINEE CLEAR 23 21 93 S3 30.43F MARSHFIELD FAIR 25 22 88 S5 30.41F WCI 19 STEVENS POINT FAIR 23 22 96 CALM 30.45S WAUPACA FAIR 27 24 87 CALM 30.46S WAUTOMA FAIR 25 24 96 CALM 30.48S WISC RAPIDS FAIR 26 21 81 S3 30.46S CAMP DOUGLAS FAIR 28 25 91 S5 30.45F WCI 22 $$ WIZ011>013-019>022-031-037>040-048>050-181400- NORTHEAST WISCONSIN CITY SKY/WX TMP DP RH WIND PRES REMARKS ANTIGO FAIR 26 20 78 SW6 30.39F WCI 19 SHAWANO FAIR 29 24 83 CALM 30.44F OCONTO FAIR 23 21 90 CALM 30.44F STURGEON BAY FAIR 31 24 75 S8 30.45S WCI 23 GREEN BAY FAIR 30 25 81 S5 30.46F WCI 25 MANITOWOC FAIR 29 27 92 SW5 30.48S WCI 24 APPLETON CLEAR 30 21 69 SW6 30.44F WCI 24 CLINTONVILLE FAIR 25 22 87 CALM 30.45F OSHKOSH FAIR 32 24 72 S8 30.47R WCI 25 $$ WIZ032>034-041-042-053>061-181400- SOUTHWEST WISCONSIN CITY SKY/WX TMP DP RH WIND PRES REMARKS LA CROSSE FAIR 33 28 81 SE7 30.47S WCI 27 SPARTA FAIR 21 20 96 CALM 30.47S VIROQUA FAIR 34 28 81 S6 30.46R WCI 28 BOSCOBEL FOG 31 30 96 CALM 30.51R VSB<1/4 PRAIRIE DU CHI FAIR 30 28 93 E3 30.50S PLATTEVILLE FAIR 32 30 92 SE6 30.49S WCI 26 $$ WIZ056-057-062-063-064-067-068-181400- SOUTH CENTRAL WISCONSIN CITY SKY/WX TMP DP RH WIND PRES REMARKS REEDSBURG FAIR 28 28 100 CALM 30.48S BARABOO/DELLS FAIR 28 26 94 CALM 30.47S LONE ROCK FAIR 28 27 96 CALM 30.50S MINERAL POINT FAIR 32 32 100 SE5 30.48S WCI 27 MADISON FAIR 29 28 96 CALM 30.49S MIDDLETON FAIR 30 29 96 CALM 30.50S WATERTOWN FAIR 28 28 100 CALM 30.49S MONROE FAIR 32 26 76 S7 30.49S WCI 26 JANESVILLE CLEAR 28 28 100 CALM 30.51S $$ WIZ051-052-058>065-066-070>072-181400- SOUTHEAST WISCONSIN CITY SKY/WX TMP DP RH WIND PRES REMARKS MILWAUKEE FAIR 35 27 72 CALM 30.50R WAUKESHA CLEAR 28 27 93 CALM 30.50S MILWAUKEE/TIMM CLEAR 28 25 86 CALM 30.51R RACINE FAIR 34 26 72 W6 30.52R WCI 29 BURLINGTON FAIR 28 27 95 CALM 30.50S KENOSHA FAIR 31 28 89 W5 30.51R WCI 26 FOND DU LAC FAIR 29 24 82 S5 30.48S WCI 24 SHEBOYGAN FAIR 27 25 92 W3 30.48S WEST BEND FAIR 27 27 100 CALM 30.48S JUNEAU FAIR 27 24 89 CALM 30.50R $$ LSZ147-162-181400- LAKE SUPERIOR STATION/POSITION TIME TEMP WIND PRES WAVE AIR SEA DIR/SP/G HT/PER (UTC) (F) (DEG/KT/KT) (MB) (FT/S) W MID LAKE BUOY 1250 43 43 230/ 23/ 27 1023.7F 5/ 5 DEVILS ISLAND 1200 42 220/ 19/ 25 1025.2F SAXON HARBOR 1230 36 200/ 11/ 16 1025.4F $$ LMZ867-665-643>646-181400- LAKE MICHIGAN STATION/POSITION TIME TEMP WIND PRES WAVE AIR SEA DIR/SP/G HT/PER (UTC) (F) (DEG/KT/KT) (MB) (FT/S) CHAMBERS ISLAND 1240 39 210/ 8/ 15 1029.1F S GREEN BAY BUOY 1300 49 52 210/ 17/ 21 1030.4F N MID LAKE BUOY 1250 41 53 250/ 16/ 17 1029.9F 1/ 3 NORTHPORT PIER 1301 38 190/ 2/ 3 1030.1 KEWAUNEE LAKESHO 1248 35 220/ 5/ 7 1030.5F SHEBOYGAN LAKESH 1300 36 250/ 7/ 8 1032.7R PORT WASHINGTON 1240 34 260/ 4/ 5 1033.5S ATWATER BUOY 1207 41 54 250/ 8/ 10 1032.3R 2/20 MILWAUKEE LAKESH 1220 38 CALM / 2 N/A S MID LAKE BUOY 1250 47 57 160/ 6/ 10 1033.2R 2/ 6 KENOSHA LAKESH 1300 36 260/ 7/ 8 1032.8 $$ TC - TEMPERATURE IN CELSIUS VSB - VISIBILITY IN STATUTE MILES WCI - WIND CHILL INDEX HX - HEAT INDEX ASUS63 KMKX 181314 RTPWI Wisconsin Morning Max/min Temperature And Precipitation Table National Weather Service Milwaukee/Sullivan WI 814 AM CDT Thu Oct 18 2018 High temperatures are for the 24 hours ending at 1 AM last night. Precipitation and new snow are for the 24 hours ending at 7 AM this morning. Snow on the ground is as of 7 AM this morning. .BR MKE 1018 C DH01/TX/DH07/TAIRZP/PPDRZZ/SFDRZZ/SDIRZZ New Snow on Wisconsin High Low Precip Snow Ground Temp Temp (in.) (in.) (in.) SUW : Superior - AWOS : 44 / 23 / M / M / M OLG : Solon Springs - AWOS : 43 / 19 / M / M / M HYR : Hayward - ASOS : 44 / 21 / M / M / M ASX : Ashland - ASOS : 43 / 21 / M / M / M ARV : Arbor Vitae - AWOS : 42 / 22 / M / M / M D25 : Manitow. Waters-AWOS : 38 / 20 / M / M / M EGV : Eagle River - AWOS : 38 / 20 / M / M / M LNL : Land O Lakes - AWOS : 38 / 19 / M / M / M PBH : Phillips - AWOS : 42 / 20 / M / M / M TKV : Tomahawk - AWOS : 38 / 20 / M / M / M RHI : Rhinelander - ASOS : 43 / 21 / T / M / M RRL : Merrill - AWOS : 44 / 20 / M / M / M AIG : Antigo - AWOS : 42 / 21 / M / M / M RZN : Siren - AWOS : 46 / 24 / M / M / M UBE : Cumberland - AWOS : 43 / 27 / M / M / M RPD : Rice Lake - AWOS : 46 / 26 / M / M / M Y23 : Chetek - AWOS : 46 / 23 / M / M / M RCX : Ladysmith - AWOS : 45 / 26 / M / M / M OEO : Osceola - AWOS : 48 / 27 / M / M / M RNH : New Richmond - AWOS : 48 / 28 / M / M / M LUM : Menomonie - AWOS : M / M / M / M / M MDZ : Medford - AWOS : 42 / 22 / M / M / M AUW : Wausau-ASOS/Downtown : 44 / 24 / 0.00 / M / M EAU : Eau Claire - ASOS : 49 / 21 / 0.00 / 0.0 / 0 OCQ : Oconto - AWOS : 46 / 20 / M / M / M CMY : Sparta-Ft McCoy AWOS : 49 / 20 / M / M / M 82C : Mauston - AWOS : 51 / 25 / M / M / M BCK : Bl. River Falls AWOS : 51 / 19 / M / M / M LSE : La Crosse - ASOS : 53 / 30 / 0.00 / 0.0 / 0 VOK : Camp Doug.-Volk-AWOS : 50 / 23 / 0.00 / M / M EZS : Shawano - AWOS : 47 / 26 / M / M / M MFI : Marshfield - ASOS : 47 / 25 / M / M / M CWA : Mosinee-Cent. WI-AWOS: 45 / 23 / M / M / M STE : Stevens Point - AWOS : 45 / 19 / M / M / M PCZ : Waupaca - AWOS : 50 / 26 / M / M / M CLI : Clintonville - AWOS : 47 / 23 / M / M / M ISW : Wis. Rapids - ASOS : 50 / 22 / M / M / M Y50 : Wautoma - AWSS : 50 / 21 / M / M / M 3D2 : Ephraim - AWOS : 43 / 29 / M / M / M SUE : Sturgeon Bay - AWOS : 45 / 26 / M / M / M GRB : Green Bay - ASOS : 48 / 26 / 0.00 / 0.0 / 0 ATW : Appleton - AWOS : 46 / 28 / M / M / M OSH : Oshkosh - ASOS : 49 / 25 / M / M / M MTW : Manitowoc - AWOS : 48 / 24 / M / M / M SBM : Sheboygan - ASOS : 49 / 22 / 0.00 / M / M FLD : Fond Du Lac - ASOS : 50 / 25 / 0.00 / M / M Y51 : Viroqua - AWOS : 49 / 30 / M / M / M LNR : Lone Rock - ASOS : 52 / 25 / 0.00 / M / M OVS : Boscobel - ASOS : 52 / 25 / M / M / M PDC : Prairie Du Chien-AWOS: 52 / 29 / M / M / M PVB : Platteville-AWOS : 51 / 30 / M / M / M MRJ : Mineral Point - AWOS : 52 / 32 / M / M / M C29 : Middleton-5 NW- AWOS : 51 / 28 / M / M / M DLL : Baraboo/Dells - AWOS : 50 / 26 / M / M / M C35 : Reedsburg - AWOS : 49 / 26 / M / M / M UNU : Juneau - AWOS : 48 / 26 / M / M / M RYV : Watertown - AWOS : 49 / 25 / M / M / M MSN : Madison - ASOS : 50 / 27 / 0.00 / 0.0 / 0 EFT : Monroe - AWOS : 49 / 31 / M / M / M JVL : Janesville - AWOS : 52 / 28 / M / M / M ETB : West Bend - AWOS : 46 / 27 / M / M / M UES : Waukesha - AWOS : 46 / 27 / M / M / M MWC : Milw.-Timmerman-AWOS : 48 / 30 / M / M / M MKE : Milw-Mitchell - ASOS : 50 / 32 / 0.00 / 0.0 / 0 RAC : Racine - ASOS : 50 / 31 / 0.00 / M / M BUU : Burlington - AWOS : 49 / M / M / M / M ENW : Kenosha- ASOS : 50 / 27 / 0.00 / M / M .End $$ ASUS43 KMKX 181321 RWRWI WISCONSIN REGIONAL WEATHER ROUNDUP NATIONAL WEATHER SERVICE MILWAUKEE/SULLIVAN WI 800 AM CDT THU OCT 18 2018 NOTE: "FAIR" INDICATES FEW OR NO CLOUDS BELOW 12,000 FEET WITH NO SIGNIFICANT WEATHER AND/OR OBSTRUCTIONS TO VISIBILITY. WIZ001-002-006>008-014>016-023>028-181400- NORTHWEST WISCONSIN CITY SKY/WX TMP DP RH WIND PRES REMARKS SUPERIOR ARPT FAIR 31 23 73 CALM 30.25F ASHLAND FAIR 31 23 72 SW9 30.29F WCI 23 HAYWARD FAIR 31 24 75 S9 30.32F WCI 23 SIREN FAIR 36 26 65 S8 30.31F WCI 30 CUMBERLAND FAIR 32 25 74 CALM 30.35F RICE LAKE FAIR 31 26 79 SE3 30.38F CHETEK FAIR 29 25 86 CALM 30.37F LADYSMITH FAIR 29 20 67 MISG 30.39F EAU CLAIRE FAIR 26 24 92 CALM 30.40F MENOMONIE FAIR N/A N/A N/A CALM 30.40F NEW RICHMOND FAIR 34 26 74 S8 30.35F WCI 27 OSCEOLA FAIR 34 28 80 S3 30.38F $$ WIZ003>005-009-010-017-018-181400- NORTH CENTRAL WISCONSIN CITY SKY/WX TMP DP RH WIND PRES REMARKS MANITOWISH WTR FAIR 30 18 61 S8 30.32S WCI 22 ARBOR VITAE FAIR 32 22 65 SW8 30.33F WCI 25 WOODRUFF FAIR 32 22 65 SW8 30.33F WCI 25 RHINELANDER FAIR 32 17 54 SW7 30.36F WCI 26 EAGLE RIVER FAIR 29 17 60 SW6 30.33F WCI 23 LAND O LAKES FAIR 28 21 74 SW5 30.33F WCI 23 PHILLIPS FAIR 29 17 62 S6 30.34F WCI 23 TOMAHAWK FAIR 28 19 70 CALM 30.37F MEDFORD FAIR 30 19 61 S8 30.38F WCI 23 MERRILL FAIR 24 21 90 CALM 30.39F $$ WIZ029-030-035-036-043>047-181400- CENTRAL WISCONSIN CITY SKY/WX TMP DP RH WIND PRES REMARKS WAUSAU FAIR 26 23 88 SE3 30.40F MOSINEE CLEAR 23 21 93 S3 30.43F MARSHFIELD FAIR 25 22 88 S5 30.41F WCI 19 STEVENS POINT FAIR 25 24 94 CALM 30.44F WAUPACA FAIR 29 26 88 CALM 30.46S WAUTOMA FAIR 25 24 96 CALM 30.48S WISC RAPIDS FAIR 26 21 81 S3 30.46S CAMP DOUGLAS FAIR 28 25 91 S5 30.45F WCI 22 $$ WIZ011>013-019>022-031-037>040-048>050-181400- NORTHEAST WISCONSIN CITY SKY/WX TMP DP RH WIND PRES REMARKS ANTIGO FAIR 29 21 74 SW6 30.39F WCI 23 SHAWANO FAIR 30 25 79 CALM 30.43F OCONTO FAIR 23 21 90 CALM 30.44F STURGEON BAY FAIR 31 24 75 S8 30.45S WCI 23 GREEN BAY FAIR 30 25 81 S5 30.46F WCI 25 MANITOWOC FAIR 29 27 92 SW5 30.48S WCI 24 APPLETON CLEAR 30 21 69 SW6 30.44F WCI 24 CLINTONVILLE FAIR 28 23 84 CALM 30.44F OSHKOSH FAIR 32 24 72 S8 30.47R WCI 25 $$ WIZ032>034-041-042-053>061-181400- SOUTHWEST WISCONSIN CITY SKY/WX TMP DP RH WIND PRES REMARKS LA CROSSE FAIR 33 28 81 SE7 30.47S WCI 27 SPARTA FAIR 24 22 93 CALM 30.47S VIROQUA FAIR 35 29 77 S7 30.46R WCI 29 BOSCOBEL FOG 31 30 96 CALM 30.51R VSB<1/4 PRAIRIE DU CHI FAIR 31 29 92 E3 30.50S PLATTEVILLE FAIR 33 31 92 S5 30.50R WCI 28 $$ WIZ056-057-062-063-064-067-068-181400- SOUTH CENTRAL WISCONSIN CITY SKY/WX TMP DP RH WIND PRES REMARKS REEDSBURG FAIR 30 28 94 CALM 30.48S BARABOO/DELLS FAIR 30 28 92 CALM 30.47S LONE ROCK FAIR 28 27 96 CALM 30.50S MINERAL POINT FAIR 32 32 100 SE5 30.48S WCI 27 MADISON FAIR 29 28 96 CALM 30.49S MIDDLETON FAIR 31 29 94 CALM 30.50S WATERTOWN FAIR 29 29 100 CALM 30.50R MONROE FAIR 34 27 74 S8 30.49S WCI 28 JANESVILLE CLEAR 28 28 100 CALM 30.51S $$ WIZ051-052-058>065-066-070>072-181400- SOUTHEAST WISCONSIN CITY SKY/WX TMP DP RH WIND PRES REMARKS MILWAUKEE FAIR 35 27 72 CALM 30.50R WAUKESHA CLEAR 28 27 93 CALM 30.50S MILWAUKEE/TIMM CLEAR 28 25 86 CALM 30.51R RACINE FAIR 34 26 72 W6 30.52R WCI 29 BURLINGTON FAIR 28 27 95 CALM 30.50S KENOSHA FAIR 31 28 89 W5 30.51R WCI 26 FOND DU LAC FAIR 29 24 82 S5 30.48S WCI 24 SHEBOYGAN FAIR 27 25 92 W3 30.48S WEST BEND FAIR 27 27 100 CALM 30.48S JUNEAU FAIR 29 27 92 CALM 30.49S $$ LSZ147-162-181400- LAKE SUPERIOR STATION/POSITION TIME TEMP WIND PRES WAVE AIR SEA DIR/SP/G HT/PER (UTC) (F) (DEG/KT/KT) (MB) (FT/S) W MID LAKE BUOY 1250 43 43 230/ 23/ 27 1023.7F 5/ 5 DEVILS ISLAND 1300 42 210/ 16/ 22 1024.3F SAXON HARBOR 1230 36 200/ 11/ 16 1025.4F $$ LMZ867-665-643>646-181400- LAKE MICHIGAN STATION/POSITION TIME TEMP WIND PRES WAVE AIR SEA DIR/SP/G HT/PER (UTC) (F) (DEG/KT/KT) (MB) (FT/S) CHAMBERS ISLAND 1240 39 210/ 8/ 15 1029.1F S GREEN BAY BUOY 1300 49 52 210/ 17/ 21 1030.4F N MID LAKE BUOY 1300 42 53 250/ 16/ 19 1029.8 NORTHPORT PIER 1301 38 190/ 2/ 3 1030.1 KEWAUNEE LAKESHO 1254 35 230/ 7/ 11 1030.5F SHEBOYGAN LAKESH 1300 36 250/ 7/ 8 1032.7R PORT WASHINGTON 1240 34 260/ 4/ 5 1033.5S ATWATER BUOY 1237 42 54 250/ 8/ 10 1032.3R 2/ 6 MILWAUKEE LAKESH 1300 41 CALM N/A S MID LAKE BUOY 1250 47 57 160/ 6/ 10 1033.2R 2/ 6 KENOSHA LAKESH 1300 36 260/ 7/ 8 1032.8 $$ TC - TEMPERATURE IN CELSIUS VSB - VISIBILITY IN STATUTE MILES WCI - WIND CHILL INDEX HX - HEAT INDEX